EW1423 Weather Reports


Display with metric or nautical units.
time (UTC)temp
F
wind
direction
speed
MPH
gust
MPH
rain 1hr
in
rain 24hr
in
rain mn
in
humidity
%
barometer
mb
20260503230804 59 74 0.0 2.0 0.00 0.00 0.00 68 1015.3
20260503230304 59 74 0.0 1.0 0.00 0.00 0.00 67 1015.3
20260503225304 59 74 0.0 1.0 0.00 0.00 0.00 66 1015.3
20260503224804 59 74 0.0 2.0 0.00 0.00 0.00 65 1015.4
20260503224303 59 74 0.0 2.0 0.00 0.00 0.00 65 1015.4
20260503223804 59 346 0.0 2.0 0.00 0.00 0.00 64 1015.4
20260503223303 59 338 0.0 0.0 0.00 0.00 0.00 64 1015.4
20260503222804 59 338 0.0 1.0 0.00 0.00 0.00 63 1015.4
20260503221804 60 338 0.0 1.0 0.00 0.00 0.00 62 1015.3
20260503221304 60 338 0.0 0.0 0.00 0.00 0.00 62 1015.3
20260503220303 60 338 0.0 0.0 0.00 0.00 0.00 61 1015.3
20260503215804 60 338 0.0 0.0 0.00 0.00 0.00 63 1015.3
20260503215304 60 338 0.0 0.0 0.00 0.00 0.00 59 1015.3
20260503214803 60 338 0.0 0.0 0.00 0.00 0.00 60 1015.2
20260503214303 61 338 0.0 0.0 0.00 0.00 0.00 58 1015.2
20260503213803 61 338 0.0 0.0 0.00 0.00 0.00 57 1015.2
20260503213304 61 338 0.0 0.0 0.00 0.00 0.00 57 1015.2
20260503212804 61 338 0.0 0.0 0.00 0.00 0.00 56 1015.2
20260503212305 61 338 0.0 0.0 0.00 0.00 0.00 55 1015.2
20260503211803 62 338 0.0 1.0 0.00 0.00 0.00 54 1014.9
20260503211304 62 338 0.0 1.0 0.00 0.00 0.00 53 1014.9
20260503210803 62 338 0.0 2.0 0.00 0.00 0.00 53 1014.9
20260503210304 62 12 0.0 2.0 0.00 0.00 0.00 54 1014.9
20260503205803 62 350 0.0 2.0 0.00 0.00 0.00 54 1014.9
20260503204804 62 323 0.0 1.0 0.00 0.00 0.00 53 1014.6
20260503204303 62 323 0.0 1.0 0.00 0.00 0.00 53 1014.6
20260503203804 62 327 0.0 2.0 0.00 0.00 0.00 53 1014.6
20260503203304 62 327 0.0 2.0 0.00 0.00 0.00 53 1014.6
20260503202804 62 327 1.0 2.0 0.00 0.00 0.00 53 1014.6
20260503202304 62 328 1.0 3.0 0.00 0.00 0.00 53 1014.6
20260503201304 62 315 1.0 5.0 0.00 0.00 0.00 54 1014.6
20260503200304 63 344 0.0 1.0 0.00 0.00 0.00 52 1013.9
20260503195804 63 344 0.0 1.0 0.00 0.00 0.00 51 1013.9
20260503195304 63 344 0.0 1.0 0.00 0.00 0.00 52 1013.9
20260503194304 64 344 1.0 2.0 0.00 0.00 0.00 50 1013.9
20260503193803 64 344 1.0 2.0 0.00 0.00 0.00 49 1013.9
20260503193304 64 326 0.0 3.0 0.00 0.00 0.00 50 1013.9
20260503192305 65 17 0.0 3.0 0.00 0.00 0.00 49 1013.9
20260503191803 65 28 1.0 5.0 0.00 0.00 0.00 48 1013.9
20260503190804 65 313 1.0 5.0 0.00 0.00 0.00 48 1013.7
20260503185804 66 269 2.0 6.0 0.00 0.00 0.00 46 1013.7
20260503184804 66 301 2.0 7.0 0.00 0.00 0.00 46 1013.7
20260503184303 67 336 2.0 6.0 0.00 0.00 0.00 46 1013.7
20260503183803 67 314 2.0 7.0 0.00 0.00 0.00 46 1013.7
20260503183303 67 293 2.0 6.0 0.00 0.00 0.00 46 1013.7
20260503182804 67 306 2.0 5.0 0.00 0.00 0.00 46 1013.1
20260503182305 68 294 3.0 12.0 0.00 0.00 0.00 45 1013.1
20260503181803 68 312 3.0 12.0 0.00 0.00 0.00 45 1013.1
20260503180804 69 340 3.0 9.0 0.00 0.00 0.00 46 1013.1
20260503180303 70 295 2.0 8.0 0.00 0.00 0.00 51 1013.0
20260503175804 70 316 2.0 5.0 0.00 0.00 0.00 57 1012.8
20260503173804 71 19 1.0 3.0 0.00 0.00 0.00 56 1012.7
20260503173303 71 355 0.0 2.0 0.00 0.00 0.00 56 1012.7
20260503172805 71 266 0.0 1.0 0.00 0.00 0.00 55 1012.7
20260503171804 71 270 1.0 3.0 0.00 0.00 0.00 54 1012.7
20260503171303 72 295 1.0 3.0 0.00 0.00 0.00 54 1012.7
20260503170803 72 292 0.0 2.0 0.00 0.00 0.00 55 1012.7
20260503150304 77 213 0.0 2.0 0.00 0.00 0.00 40 1012.4
20260503140304 81 286 1.0 2.0 0.00 0.00 0.00 36 1012.9
20260503130303 79 115 0.0 2.0 0.00 0.00 0.00 35 1014.0
20260503110804 79 95 2.0 6.0 0.00 0.00 0.00 41 1014.6
20260503090303 72 296 1.0 5.0 0.00 0.00 0.00 50 1015.9
20260503081304 68 111 1.0 3.0 0.00 0.00 0.00 58 1016.2
20260503080803 68 157 1.0 3.0 0.00 0.00 0.00 57 1016.2
20260503080303 68 183 0.0 1.0 0.00 0.00 0.00 59 1016.2
20260503072305 63 183 1.0 2.0 0.00 0.00 0.00 60 1015.9
20260503071804 63 184 1.0 3.0 0.00 0.00 0.00 61 1015.9
20260503070804 62 145 0.0 2.0 0.00 0.00 0.00 63 1016.0
20260503070303 61 145 0.0 2.0 0.00 0.00 0.00 64 1016.0
20260503060303 56 139 1.0 3.0 0.00 0.00 0.00 74 1016.0
20260503054803 54 127 1.0 2.0 0.00 0.00 0.00 80 1016.0
20260503054303 53 146 0.0 1.0 0.00 0.00 0.00 82 1016.0
20260503053804 52 146 1.0 2.0 0.00 0.00 0.00 82 1016.0
20260503053304 51 148 0.0 2.0 0.00 0.00 0.00 84 1016.0
20260503052803 51 181 0.0 1.0 0.00 0.00 0.00 85 1016.0
20260503052305 50 181 0.0 3.0 0.00 0.00 0.00 85 1016.0
20260503051804 50 127 1.0 5.0 0.00 0.00 0.00 86 1016.0
20260503050804 49 163 1.0 5.0 0.00 0.00 0.00 89 1016.0
20260503045811 48 152 1.0 5.0 0.00 0.00 0.00 90 1016.0
20260503045305 48 155 0.0 3.0 0.00 0.00 0.00 91 1016.0
20260503044804 48 125 1.0 2.0 0.00 0.00 0.00 91 1016.0
20260503044304 47 125 0.0 2.0 0.00 0.00 0.00 92 1016.0
20260503043803 47 126 0.0 1.0 0.00 0.00 0.00 92 1016.0
20260503042804 47 126 0.0 0.0 0.00 0.00 0.00 93 1016.0
20260503042305 47 126 0.0 1.0 0.00 0.00 0.00 93 1016.0
20260503041804 46 126 0.0 0.0 0.00 0.00 0.00 94 1016.0
20260503041303 46 126 0.0 0.0 0.00 0.00 0.00 94 1016.0
20260503040803 46 126 0.0 0.0 0.00 0.00 0.00 94 1016.0
20260503035803 46 126 0.0 0.0 0.00 0.00 0.00 93 1016.0
20260503034304 46 126 0.0 0.0 0.00 0.00 0.00 93 1016.0
20260503033304 47 126 0.0 0.0 0.00 0.00 0.00 92 1016.0
20260503032803 47 126 0.0 1.0 0.00 0.00 0.00 93 1016.2
20260503032305 47 126 0.0 0.0 0.00 0.00 0.00 92 1016.2
20260503031304 47 126 0.0 0.0 0.00 0.00 0.00 90 1015.9
20260503030803 48 126 0.0 0.0 0.00 0.00 0.00 90 1015.9
20260503030304 48 126 0.0 0.0 0.00 0.00 0.00 89 1015.9
20260503025319 49 126 0.0 0.0 0.00 0.00 0.00 88 1015.9
20260503024804 49 126 0.0 0.0 0.00 0.00 0.00 88 1015.9
20260503024303 49 126 0.0 1.0 0.00 0.00 0.00 87 1015.9
20260503023303 49 74 0.0 2.0 0.00 0.00 0.00 87 1016.1
20260503022803 49 74 1.0 2.0 0.00 0.00 0.00 88 1016.1
20260503022305 49 74 0.0 3.0 0.00 0.00 0.00 88 1016.1
20260503021803 49 109 0.0 5.0 0.00 0.00 0.00 88 1016.1
20260503021304 49 143 0.0 1.0 0.00 0.00 0.00 89 1016.1
20260503020803 49 143 0.0 2.0 0.00 0.00 0.00 88 1016.1
20260503020304 49 143 0.0 1.0 0.00 0.00 0.00 88 1016.1
20260503015305 49 137 1.0 2.0 0.00 0.00 0.00 87 1016.1
20260503014803 49 137 0.0 1.0 0.00 0.00 0.00 87 1016.1
20260503014303 49 137 1.0 2.0 0.00 0.00 0.00 87 1016.0
20260503013804 49 151 0.0 1.0 0.00 0.00 0.00 87 1016.0
20260503013303 49 153 0.0 1.0 0.00 0.00 0.00 87 1016.0
20260503012803 49 153 0.0 0.0 0.00 0.00 0.00 87 1016.0
20260503012305 49 153 0.0 1.0 0.00 0.00 0.00 87 1016.0
20260503011804 49 153 0.0 0.0 0.00 0.00 0.00 88 1016.0
20260503011304 49 153 0.0 0.0 0.00 0.00 0.00 87 1016.0
20260503010803 49 153 0.0 1.0 0.00 0.00 0.00 87 1016.0
20260503010303 50 153 0.0 0.0 0.00 0.00 0.00 86 1016.0
20260503005804 50 153 0.0 0.0 0.00 0.00 0.00 86 1015.9
20260503004804 50 153 0.0 1.0 0.00 0.00 0.00 86 1016.3
20260503004304 49 153 0.0 1.0 0.00 0.00 0.00 87 1016.3
20260503003803 49 153 0.0 1.0 0.00 0.00 0.00 87 1016.3
20260503003304 49 153 0.0 1.0 0.00 0.00 0.00 87 1016.3
20260503002804 49 153 0.0 1.0 0.00 0.00 0.00 87 1016.3
20260503002305 49 153 0.0 1.0 0.00 0.00 0.00 86 1016.3
20260503001804 49 153 0.0 1.0 0.00 0.00 0.00 86 1016.3
20260503000804 49 153 0.0 0.0 0.00 0.00 0.00 86 1016.3
20260503000304 49 153 0.0 0.0 0.00 0.00 0.00 86 1016.3
20260502235803 49 153 0.0 0.0 0.00 0.00 0.00 86 1016.3
20260502235305 49 153 0.0 0.0 0.00 0.00 0.00 86 1016.3
20260502234803 49 153 0.0 0.0 0.00 0.00 0.00 86 1016.3
20260502233303 50 153 0.0 0.0 0.00 0.00 0.00 84 1016.4
20260502232803 50 153 0.0 0.0 0.00 0.00 0.00 84 1016.4
20260502232305 50 153 0.0 0.0 0.00 0.00 0.00 84 1016.4